Regional Weather Roundup
Issued by NWS

Home | Current Version | Previous Version | Text Only | Print | Product List | Glossary Off
Versions: 1 2 3 4 5 6 7 8 9 10 11 12 13 14 15 16 17 18 19 20 21 22 23 24 25 26 27 28

000
ASUS45 KSLC 161610
RWRUT

UTAH REGIONAL WEATHER ROUNDUP
NATIONAL WEATHER SERVICE SALT LAKE CITY UT
1000 AM MDT MON OCT 16 2017

UTZ001>011-023>025-161700-

NORTHERN UTAH

CITY           SKY/WX    TMP DP  RH WIND       PRES   REMARKS
BRIGHAM CITY   SUNNY     38  24  57 CALM      30.46R
DUGWAY         MOSUNNY   41  13  31 SW1       30.44S
HILL AFB       SUNNY     40  19  41 E16       30.43S WCI  32
LOGAN          SUNNY     37  28  70 CALM      30.45S
OGDEN          SUNNY     43  22  43 S3        30.43S
SALT LAKE CITY PTSUNNY   47  28  47 CALM      30.44R
TOOELE VALLEY  SUNNY     45  28  53 CALM      30.45S
WENDOVER       MOSUNNY   40  18  41 CALM      30.45R
WEST JORDAN    SUNNY     44  28  53 CALM      30.45R

$$

UTZ011>015-024>027-161700-

CENTRAL/NORTHEAST UTAH

CITY           SKY/WX    TMP DP  RH WIND       PRES   REMARKS
PROVO AIRPORT  SUNNY     45  24  43 SE3       30.46R
MOAB/CANYONLAN SUNNY     49  13  23 SE7       30.47S
DELTA          PTSUNNY   39  21  48 CALM      30.44R
PRICE          MOSUNNY   45   7  21 CALM      30.49S
ROOSEVELT      CLOUDY    41  18  38 CALM      30.51S
VERNAL         SUNNY     43  15  32 E3        30.48S

$$

UTZ013>016-019>022-027-161700-

SOUTHERN UTAH

CITY           SKY/WX    TMP DP  RH WIND       PRES   REMARKS
BRYCE CANYON   SUNNY     46  -1  14 W5        30.54R
CEDAR CITY     MOSUNNY   46  14  27 W3        30.42S
MILFORD        MOSUNNY   37  14  38 S8        30.43S WCI  31
ST GEORGE      SUNNY     50   8  18 CALM      30.39R
HANKSVILLE     SUNNY     41  10  28 CALM      30.52S
BLANDING         N/A     55   9  16 CALM      30.58R

$$

REGIONAL REPORTS     COLORADO/ARIZONA

CITY           SKY/WX    TMP DP  RH WIND       PRES   REMARKS
CRAIG, CO      CLOUDY    41  24  51 CALM      30.48S
GRAND JUNCTION CLOUDY    47  18  31 S6        30.50S
RIFLE, CO      SUNNY     39  20  46 CALM      30.52F
MONTROSE, CO   SUNNY     45  11  25 CALM      30.53F
CORTEZ, CO     SUNNY     50  15  24 CALM      30.51S
COLORADO CITY    N/A     57   7  13 SE5       30.44S
PAGE, AZ       SUNNY     50  10  20 CALM      30.46R
GRAND CANYON   SUNNY     63  10  12 SE5       30.48S
KINGMAN, AZ    SUNNY     65  13  13 NE5       30.31R
FLAGSTAFF, AZ  SUNNY     57   2  11 NE5       30.51R

$$

REGIONAL REPORTS    NEVADA/IDAHO/WYOMING

CITY           SKY/WX    TMP DP  RH WIND       PRES   REMARKS
LAS VEGAS, NV  MOSUNNY   65  11  12 CALM      30.28R
ELY, NY        MOSUNNY   41  -1  17 S12       30.45R
ELKO, NV       MOSUNNY   33  13  43 E3        30.44R
POCATELLO, ID  CLOUDY    37  27  67 NE3       30.43R
BURLEY, ID     SUNNY     38  25  59 N5        30.39R WCI  34
FORT BRIDGER,    N/A     50   7  17 W9        30.48R
EVANSTON, WY   CLOUDY    46   8  21 SW12      30.47R
ROCK SPRINGS,  CLOUDY    42  15  33 NE3       30.45R
KEMMERER, WY   CLOUDY    45  12  26 W3        30.46S

$$




USA.gov is the U.S. government's official web portal to all federal, state and local government web resources and services.